Home   Weather   Santa Cruz   Past weeks

Flag for USA Past Weather in Santa Cruz, California, USA — Yesterday and Last 2 Weeks

Now
59 °F

Clear.


Feels Like: 59 °F
Forecast: 53 / 68 °F
Wind: 5 mph from Southeast

Location: Watsonville Municipal Airport

Current Time: Sep 30, 2016 at 8:13:59 PM

Latest Report: Sep 30, 2016 at 7:53 PM


Visibility: 10 mi

Pressure: 30.07 "Hg

Humidity: 69%

Dew Point: 49 °F

Location of Santa CruzLocation

Past Weather in Santa Cruz — Graph

°F

Santa Cruz Temperature Yesterday

Maximum temperature yesterday: 67 °F (at 2:53 PM)
Minimum temperature yesterday: 52 °F (at 11:53 PM)
Average temperature yesterday: 57 °F

High & Low Weather Summary for the Past Weeks

 TemperatureHumidityPressure
High101 °F (Sep 26, 2:53 PM)100% (Sep 16, 1:58 AM)30.15 "Hg (Sep 16, 1:58 AM)
Low46 °F (Sep 22, 6:53 AM)8% (Sep 26, 2:53 PM)29.84 "Hg (Sep 27, 4:53 PM)
Average62 °F74%29.99 "Hg
* Reported Sep 15 6:53 PM — Sep 30 6:53 PM, Santa Cruz, Weather by CustomWeather, © 2016

Note: Actual official high and low records may vary slightly from our data, if they occured in-between our weather recording intervals... More about our weather records

Advertising

Santa Cruz Weather History for the Previous 24 Hours

Scroll right to see more
 ConditionsComfort  
Time TempWeatherWind HumidityBarometerVisibility
6:53 PM
Fri, Sep 30
62 °FClear.8 mph62%30.06 "Hg10 mi
5:53 PM68 °FSunny.8 mph47%30.05 "Hg10 mi
4:53 PM70 °FSunny.6 mph46%30.05 "Hg10 mi
3:53 PM70 °FSunny.3 mph47%30.06 "Hg10 mi
2:53 PM66 °FSunny.5 mph59%30.08 "Hg10 mi
1:53 PM65 °FSunny.7 mph63%30.09 "Hg10 mi
12:53 PM64 °FSunny.8 mph68%30.12 "Hg10 mi
11:53 AM62 °FSunny.3 mph73%30.13 "Hg7 mi
10:53 AM57 °FMostly cloudy.No wind83%30.14 "Hg6 mi
9:53 AM55 °FFog.No wind90%30.14 "Hg6 mi
9:00 AM54 °FFog.No wind93%30.14 "Hg6 mi
7:53 AM53 °FFog.3 mph96%30.13 "Hg6 mi
6:53 AM53 °FLow clouds.No wind96%30.12 "Hg8 mi
5:53 AM53 °FLow clouds.3 mph96%30.11 "Hg10 mi
4:53 AM54 °FLow clouds.3 mph97%30.10 "Hg9 mi
3:53 AM54 °FLow clouds.5 mph100%30.10 "Hg7 mi
2:53 AM53 °FFog.3 mph100%30.10 "Hg5 mi
1:53 AM52 °FLow clouds.No wind97%30.09 "Hg9 mi
1:04 AM50 °FPassing clouds.No wind96%30.10 "Hg10 mi
12:53 AM51 °FClear.No wind96%30.09 "Hg10 mi
11:53 PM
Thu, Sep 29
52 °FClear.3 mph97%30.09 "Hg10 mi
10:53 PM53 °FClear.No wind96%30.09 "Hg10 mi
9:53 PM53 °FClear.No wind96%30.09 "Hg10 mi
8:53 PM54 °FClear.5 mph97%30.08 "Hg10 mi
Weather by CustomWeather, © 2016

See weather overviewHow to use our weather pages